Content
SEND FEEDBACK

Daily
Averages
Monthly
Summary
United States of America

ST. LOUIS, MISSOURI


Home > North America > United States > Missouri
Elevation: 163 meters     Latitude: 38 45N     Longitude: 090 22W

WEATHER
 
SELECT A DAY
Number of Records: 196,500;   Date Range: 1/1/95 - 8/30/14
 
SHARE

PRINT THIS DATA

[ ← Previous Day ]
WEATHER ALMANAC - 16 FEBRUARY, 2013
[ Next Day → ]
[ °F ]   °C
Weather ElementAverageHighLow
Temperature-2.9 °C3.3 °C (3:54 pm)-6.7 °C (6:54 am)
Dewpoint-11.7 °C-10 °C (7:54 am)-14.4 °C (2:54 pm)
Humidity54.4 %74 % (11:54 pm)28 % (2:54 pm)
Barometer1024.4 hPa1026.8 hPa (8:54 am)1022.7 hPa (2:54 pm)
Wind Speed8.5 km/h20.4 km/h (11:54 am)
Wind Gust31.5 km/h (1:54 pm)
Weather ElementAverage
Visibility16.1 km
Wind DirectionSSW (210.4 °)

Weather ElementTotal
Precipitation---
Heating Degree Days20.1 (Base 18.3)
Averaged from 23 records on 16 February, 2013
WEATHER CONDITIONS BREAKOUT
WIND DIRECTION BREAKOUT
WEATHER BY HOUR - 16 FEBRUARY, 2013
[ °F ]   °C
Local TimeTemperatureDewpointHumidityBarometerVisibilityWind DirectionWind SpeedGust SpeedPrecipitationEventsConditions
1:54 AM-3.9 °C-10.6 °C60 %1025.1 hPa16.1 kmNW (310°)13 km/hClear
2:54 AM-5 °C-10.6 °C65 %1025.1 hPa16.1 kmWest (280°)7.4 km/hClear
3:54 AM-5 °C-11.1 °C63 %1025.1 hPa16.1 kmWest (280°)7.4 km/hClear
4:54 AM-6.1 °C-11.1 °C68 %1025.4 hPa16.1 kmWest (280°)9.3 km/hClear
5:54 AM-6.1 °C-11.1 °C68 %1025.4 hPa16.1 kmWest (280°)7.4 km/hClear
6:54 AM-6.7 °C-11.1 °C71 %1026.1 hPa16.1 kmWest (270°)7.4 km/hClear
7:54 AM-5.6 °C-10 °C72 %1026.4 hPa16.1 kmWNW (300°)9.3 km/hClear
8:54 AM-4.4 °C-11.1 °C60 %1026.8 hPa16.1 kmNNW (330°)16.7 km/hPartly Cloudy
9:54 AM-3.3 °C-11.7 °C53 %1026.4 hPa16.1 kmNNW (340°)14.8 km/hClear
10:54 AM-1.7 °C-11.1 °C49 %1026.4 hPa16.1 kmNNW (330°)9.3 km/hClear
11:54 AM0 °C-12.8 °C38 %1025.4 hPa16.1 kmWNW (300°)20.4 km/hClear
12:54 PM1.7 °C-12.8 °C34 %1024.4 hPa16.1 kmWNW (300°)13 km/hClear
1:54 PM2.2 °C-13.3 °C31 %1023.4 hPa16.1 kmNNW (330°)16.7 km/h31.5 km/hClear
2:54 PM2.8 °C-14.4 °C28 %1022.7 hPa16.1 kmNW (310°)16.7 km/h27.8 km/hClear
3:54 PM3.3 °C-13.9 °C28 %1022.7 hPa16.1 kmNNW (330°)14.8 km/hClear
4:54 PM2.2 °C-14.4 °C29 %1022.7 hPa16.1 kmWest (270°)11.1 km/hClear
5:54 PM-0.6 °C-12.8 °C40 %1023 hPa16.1 kmCalmClear
6:54 PM-3.3 °C-10.6 °C58 %1023.4 hPa16.1 kmCalmClear
7:54 PM-3.9 °C-10.6 °C60 %1023.4 hPa16.1 kmCalmClear
8:54 PM-5 °C-11.1 °C63 %1023.7 hPa16.1 kmCalmClear
9:54 PM-5.6 °C-10.6 °C68 %1023.7 hPa16.1 kmCalmClear
10:54 PM-6.1 °C-10.6 °C71 %1023.4 hPa16.1 kmCalmClear
11:54 PM-6.7 °C-10.6 °C74 %1023 hPa16.1 kmCalmClear
Hourly data recorded from KSUS, located 0 kilometers away from St. Louis, Missouri







STORIES FROM OUR PARTNERS